HSKCS VTSM-WMKL

Flight info

Callsign HSKCS
Flight time 0h 34m
Altitude 33000
Route MESEM1A MESEM DCT NKS W35 TRN DCT DALAN DALAN1E
Aircraft C750/M-SBDE3FGHRWXY/S

Departure

Time 2026-04-27 16:25
Airport Samui International Airport (VTSM)

Arrival

Time 2026-04-27 16:59
Airport Langkawi International Airport (WMKL)
Time Latitude Longitude Altitude Speed Heading
2026-04-27 15:57 9.55304 100.06316 64 ft 0 kts 83°
2026-04-27 16:20 9.55284 100.06284 61 ft 1 kts 18°
2026-04-27 16:20 9.55282 100.06284 61 ft 0 kts 16°
2026-04-27 16:20 9.55254 100.06284 61 ft 0 kts 355°
2026-04-27 16:22 9.55255 100.06284 61 ft 0 kts 355°
2026-04-27 16:23 9.55280 100.06280 61 ft 7 kts 343°
2026-04-27 16:23 9.55285 100.06197 57 ft 1 kts 160°
2026-04-27 16:23 9.55277 100.06199 57 ft 0 kts 174°
2026-04-27 16:24 9.55275 100.06199 57 ft 6 kts 174°
2026-04-27 16:24 9.53622 100.06370 624 ft 189 kts 172°
2026-04-27 16:25 9.51040 100.07365 3457 ft 223 kts 152°
2026-04-27 16:25 9.48218 100.08534 6607 ft 232 kts 159°
2026-04-27 16:26 9.44975 100.08615 9054 ft 267 kts 207°
2026-04-27 16:26 9.41963 100.05990 10839 ft 322 kts 221°
2026-04-27 16:27 9.38437 100.02921 13183 ft 347 kts 220°
2026-04-27 16:27 9.32667 99.97997 16743 ft 366 kts 219°
2026-04-27 16:28 9.28746 99.94634 18888 ft 378 kts 219°
2026-04-27 16:28 9.24664 99.91148 20710 ft 393 kts 218°
2026-04-27 16:29 9.16919 99.88827 23299 ft 402 kts 187°
2026-04-27 16:30 9.11314 99.87949 25022 ft 412 kts 187°
2026-04-27 16:30 9.05529 99.87031 26636 ft 423 kts 187°
2026-04-27 16:31 8.96390 99.85583 27438 ft 476 kts 187°
2026-04-27 16:31 8.89621 99.84511 28349 ft 497 kts 187°
2026-04-27 16:32 8.82755 99.83425 29815 ft 503 kts 188°
2026-04-27 16:32 8.79212 99.82863 29909 ft 520 kts 188°
2026-04-27 16:33 8.71801 99.81686 30063 ft 549 kts 188°
2026-04-27 16:33 8.68028 99.81090 30582 ft 552 kts 188°
2026-04-27 16:33 8.64195 99.80483 31034 ft 554 kts 188°
2026-04-27 16:33 8.60349 99.79877 31401 ft 554 kts 188°
2026-04-27 16:34 8.56568 99.79277 31617 ft 556 kts 188°
2026-04-27 16:34 8.52705 99.78666 31733 ft 558 kts 188°
2026-04-27 16:34 8.45015 99.77449 32231 ft 553 kts 188°
2026-04-27 16:35 8.41214 99.76849 32687 ft 551 kts 188°
2026-04-27 16:35 8.37412 99.76248 33014 ft 551 kts 188°
2026-04-27 16:36 8.25948 99.74436 33061 ft 555 kts 188°
2026-04-27 16:36 8.18337 99.73235 33037 ft 551 kts 188°
2026-04-27 16:37 8.10740 99.72036 33006 ft 551 kts 188°
2026-04-27 16:37 8.03119 99.70832 32976 ft 552 kts 188°
2026-04-27 16:38 7.95485 99.69628 32961 ft 551 kts 188°
2026-04-27 16:38 7.87872 99.68429 32963 ft 551 kts 188°
2026-04-27 16:39 7.80315 99.67239 32966 ft 550 kts 188°
2026-04-27 16:39 7.72726 99.66043 32965 ft 550 kts 188°
2026-04-27 16:40 7.65168 99.64853 32962 ft 550 kts 188°
2026-04-27 16:40 7.57561 99.63654 32950 ft 551 kts 188°
2026-04-27 16:41 7.49953 99.62617 32904 ft 551 kts 180°
2026-04-27 16:41 7.42284 99.62839 32947 ft 550 kts 177°
2026-04-27 16:41 7.38462 99.62956 32570 ft 554 kts 178°
2026-04-27 16:42 7.34668 99.63061 31976 ft 532 kts 178°
2026-04-27 16:42 7.31100 99.63158 30066 ft 504 kts 177°
2026-04-27 16:42 7.27677 99.63256 28944 ft 481 kts 176°
2026-04-27 16:42 7.24403 99.63349 28355 ft 455 kts 176°
2026-04-27 16:43 7.21314 99.63438 27891 ft 431 kts 176°
2026-04-27 16:43 7.18367 99.63524 27351 ft 412 kts 176°
2026-04-27 16:43 7.15564 99.63605 26807 ft 397 kts 176°
2026-04-27 16:43 7.12874 99.63680 26318 ft 382 kts 176°
2026-04-27 16:44 7.10259 99.63754 25870 ft 370 kts 176°
2026-04-27 16:44 7.07698 99.63828 25421 ft 361 kts 176°
2026-04-27 16:44 7.05190 99.63902 24958 ft 353 kts 176°
2026-04-27 16:44 7.02768 99.63969 24457 ft 348 kts 176°
2026-04-27 16:45 7.00352 99.64037 23907 ft 345 kts 176°
2026-04-27 16:45 6.97950 99.64107 23333 ft 343 kts 176°
2026-04-27 16:45 6.95573 99.64175 22765 ft 340 kts 176°
2026-04-27 16:45 6.93206 99.64242 22208 ft 338 kts 176°
2026-04-27 16:46 6.90857 99.64309 21681 ft 335 kts 176°
2026-04-27 16:46 6.88533 99.64374 21151 ft 333 kts 176°
2026-04-27 16:46 6.86236 99.64439 20618 ft 330 kts 176°
2026-04-27 16:46 6.83938 99.64503 20077 ft 328 kts 176°
2026-04-27 16:47 6.81657 99.64568 19543 ft 326 kts 176°
2026-04-27 16:47 6.79383 99.64632 18999 ft 325 kts 175°
2026-04-27 16:47 6.77118 99.64698 18458 ft 322 kts 175°
2026-04-27 16:47 6.74865 99.64761 17936 ft 320 kts 175°
2026-04-27 16:48 6.72628 99.64725 17253 ft 326 kts 187°
2026-04-27 16:48 6.70403 99.64263 16678 ft 325 kts 188°
2026-04-27 16:48 6.68192 99.63847 16095 ft 323 kts 188°
2026-04-27 16:49 6.63812 99.63015 14972 ft 318 kts 188°
2026-04-27 16:49 6.61641 99.62605 14400 ft 317 kts 189°
2026-04-27 16:49 6.59472 99.62194 13843 ft 316 kts 189°
2026-04-27 16:49 6.57302 99.61783 13262 ft 315 kts 189°
2026-04-27 16:50 6.55156 99.61376 12676 ft 315 kts 189°
2026-04-27 16:50 6.52984 99.60964 12071 ft 314 kts 189°
2026-04-27 16:50 6.50851 99.60561 11458 ft 313 kts 189°
2026-04-27 16:50 6.48701 99.60153 10817 ft 313 kts 189°
2026-04-27 16:51 6.46564 99.59750 10179 ft 312 kts 189°
2026-04-27 16:51 6.44489 99.59353 10102 ft 299 kts 189°
2026-04-27 16:51 6.42448 99.58971 10024 ft 297 kts 189°
2026-04-27 16:51 6.40406 99.58584 9531 ft 301 kts 189°
2026-04-27 16:52 6.38345 99.58195 8872 ft 297 kts 189°
2026-04-27 16:52 6.36324 99.57812 8195 ft 294 kts 189°
2026-04-27 16:52 6.34334 99.57435 7520 ft 291 kts 189°
2026-04-27 16:52 6.32339 99.57056 6835 ft 289 kts 189°
2026-04-27 16:53 6.30371 99.56685 6151 ft 287 kts 189°
2026-04-27 16:53 6.28418 99.56316 5467 ft 285 kts 189°
2026-04-27 16:53 6.26494 99.55946 4983 ft 274 kts 189°
2026-04-27 16:53 6.24646 99.55570 4685 ft 261 kts 191°
2026-04-27 16:54 6.22889 99.55186 4358 ft 257 kts 191°
2026-04-27 16:54 6.21091 99.54984 3894 ft 266 kts 171°
2026-04-27 16:54 6.19463 99.55744 3538 ft 252 kts 134°
2026-04-27 16:54 6.18528 99.57236 3431 ft 256 kts 107°
2026-04-27 16:55 6.18251 99.58892 3468 ft 233 kts 89°
2026-04-27 16:55 6.18435 99.60490 3381 ft 221 kts 80°
2026-04-27 16:55 6.18801 99.61948 3339 ft 216 kts 65°
2026-04-27 16:55 6.19733 99.63177 3095 ft 231 kts 44°
2026-04-27 16:56 6.20882 99.64329 2838 ft 235 kts 44°
2026-04-27 16:56 6.22144 99.65385 2511 ft 235 kts 40°
2026-04-27 16:56 6.23442 99.66365 2114 ft 229 kts 34°
2026-04-27 16:56 6.24705 99.67196 1781 ft 201 kts 35°
2026-04-27 16:57 6.25817 99.67940 1435 ft 183 kts 35°
2026-04-27 16:57 6.26795 99.68623 1232 ft 160 kts 36°
2026-04-27 16:57 6.27678 99.69224 1009 ft 146 kts 35°
2026-04-27 16:57 6.28477 99.69772 821 ft 131 kts 35°
2026-04-27 16:58 6.29261 99.70306 684 ft 130 kts 35°
2026-04-27 16:58 6.30035 99.70845 523 ft 136 kts 35°
2026-04-27 16:58 6.30818 99.71388 343 ft 136 kts 35°
2026-04-27 16:58 6.31601 99.71922 142 ft 133 kts 34°
2026-04-27 16:59 6.32374 99.72450 20 ft 131 kts 34°
2026-04-27 16:59 6.33058 99.72917 19 ft 107 kts 34°
2026-04-27 16:59 6.33521 99.73235 23 ft 47 kts 35°
2026-04-27 16:59 6.33692 99.73349 24 ft 11 kts 28°
2026-04-27 17:00 6.33793 99.73283 24 ft 11 kts 304°
2026-04-27 17:00 6.33848 99.73195 25 ft 10 kts 277°
2026-04-27 17:00 6.33801 99.73140 25 ft 10 kts 214°
2026-04-27 17:01 6.33772 99.73108 25 ft 5 kts 288°
2026-04-27 17:01 6.33789 99.73082 27 ft 2 kts 304°
2026-04-27 17:01 6.33803 99.73061 29 ft 2 kts 304°
2026-04-27 17:01 6.33805 99.73059 29 ft 0 kts 304°
2026-04-27 17:02 6.33804 99.73059 29 ft 0 kts 304°
2026-04-27 17:03 6.33805 99.73059 29 ft 0 kts 304°
2026-04-27 17:05 6.33804 99.73059 29 ft 0 kts 304°